Starlink 2642

operational
NORAD ID: 48437 Int'l Des: 2021-040 Owner: SPXS Country: US Constellation: starlink
LEOCIRCULARSTARLINK_TYPE

About Starlink 2642

Description loading...

Live Position

Loading 3D Globe...

Upcoming Passes

Altitude History

Altitude vs Time

uPlot chart will show altitude changes over time

Two-Line Element Set

1 48437U 21040K 25299.72243977 .00002009 00000-0 15371-3 0 9992
2 48437 53.0530 73.0198 0001119 85.4048 274.7069 15.06400275246291
Epoch: Oct 26, 2025 • Age: 8 hours

Current Status

Altitude 566.3 km
Velocity 7.58 km/s
Sub-Earth Point -52.80°S, 58.17°W
Launch Date May 9, 2021
Age 4.4 years
Type internet

Technical Details

Classification Payload
Mass 260.00 kg
Dry Mass 248.00 kg
Total Mass 260.00 kg
Length 0.20 m
Diameter 2.80 m
Span 9.00 m
Shape Box + pan
Manufacturer SPXS
Bus Type Starlink
Phase Status In Orbit
Owner/State SPXS/US

Large Constellations

Loading constellations...